Weather Roundup
Issued by NWS

Home | Current Version | Previous Version | Graphics & Text | Print | Product List | Glossary Off
Versions: 1 2 3 4 5 6 7 8 9 10 11 12 13 14 15 16 17 18 19 20 21 22 23 24 25 26 27 28 29 30 31 32 33 34 35 36 37 38 39 40 41 42 43 44 45 46 47 48 49 50

977
NZUS93 KARX 240510
HRRWXR

CURRENT HOURLY OBSERVATIONS ACROSS
MUCH OF THE UPPER MISSISSIPPI VALLEY
NATIONAL WEATHER SERVICE LA CROSSE WI
1200 AM CDT MON APR 24 2017


...SOUTHEAST MINNESOTA...


CITY           SKY/WX    TMP DP  RH WIND       PRES   REMARKS
ROCHESTER      CLOUDY    50  36  58 S6        29.93F
ROCHESTER/MAYO FAIR      58  32  38 S10       29.92F
WINONA         PTCLDY    55  39  54 CALM      29.93S
AUSTIN         CLEAR     52  36  54 S8        29.92F
ALBERT LEA     CLOUDY    52  30  43 SE6       29.91S
DODGE CENTER   CLOUDY    52  36  54 S9        29.91F
PRESTON        CLEAR     53  32  44 S9        29.94F
OWATONNA       CLOUDY    57  30  35 S12       29.89F
FARIBAULT      PTCLDY    55  34  44 S7        29.89S
$$

...ELSEWHERE IN MINNESOTA...


CITY           SKY/WX    TMP DP  RH WIND       PRES   REMARKS
MINNEAPOLIS    CLOUDY    52  39  61 NE8       29.88F
INTNL FALLS    CLOUDY    32  25  75 SE8       30.04F WCI  25
DULUTH         CLOUDY    32  27  81 E17G29    30.01F WCI  21
RED WING       PTCLDY    63  28  27 SW7G16    29.88F
REDWOOD FALLS  CLOUDY    55  32  41 S12       29.80F
MANKATO        PTCLDY    56  31  38 S9        29.86F
WORTHINGTON    CLOUDY    55  31  39 S14       29.84F
FAIRMONT       PTCLDY    52  34  50 S13       29.87F
$$

...SOUTHWEST WISCONSIN...


CITY           SKY/WX    TMP DP  RH WIND       PRES   REMARKS
LA CROSSE      CLEAR     57  39  51 SE6       29.94S
PRAIRIE DU CHI CLEAR     53  36  53 CALM      29.97S
BOSCOBEL       CLEAR     46  41  82 CALM      29.98S
LONE ROCK      CLEAR     49  40  71 E8        30.00R
PLATTEVILLE    CLEAR     55  37  50 SE8       30.00S
FORT MC COY    CLEAR     51  44  77 E10       29.98S
CAMP DOUGLAS   PTCLDY    45  39  78 E14       30.01S
MAUSTON-NEW LI CLEAR     46  39  78 SE10      30.02R
VIROQUA        FAIR      56  32  39 S8        29.97S
WIS DELLS      CLEAR     43  37  79 E9        30.03S
$$

...ELSEWHERE IN WISCONSIN...


CITY           SKY/WX    TMP DP  RH WIND       PRES   REMARKS
MILWAUKEE      PTCLDY    40  34  79 N3        30.07F
MADISON        CLEAR     43  36  76 E6        30.03F
GREEN BAY      CLEAR     39  29  67 NE9       30.11S WCI  33
EAU CLAIRE     PTCLDY    53  43  68 E9        29.93S
BLACK RVR FLS  FAIR      51  41  69 E6        29.97S
MEDFORD        CLEAR     39  33  79 E7        30.01S WCI  34
WAUSAU         CLEAR     37  30  75 E10       30.05F WCI  30
WIS RAPIDS     CLEAR     41  35  79 SE16G24   30.05S
MARSHFIELD     CLEAR     40  34  79 E17       30.02R WCI  31
RICE LAKE      PTCLDY    44  36  72 E12       29.97F
$$

...NORTHEAST IOWA...


CITY           SKY/WX    TMP DP  RH WIND       PRES   REMARKS
WATERLOO       CLOUDY    55  32  41 S9        29.95F
DUBUQUE        CLEAR     53  33  46 S6        30.00F
DECORAH        CLEAR     55  34  44 S7        29.95S
MASON CITY     CLEAR     46  35  65 S8        29.93F
CHARLES CITY   CLEAR     54  32  43 S10       29.95S
OELWEIN        NOT AVBL
$$

...ELSEWHERE IN IOWA...


CITY           SKY/WX    TMP DP  RH WIND       PRES   REMARKS
DES MOINES     CLEAR     55  34  45 SE8       29.95F
IOWA CITY      CLOUDY    50  38  63 CALM      30.00F
FORT DODGE     CLOUDY    57  30  35 S8        29.92S
MARSHALLTOWN   CLEAR     56  33  42 S10       29.95F
CEDAR RAPIDS   CLOUDY    52  34  50 SE6       29.98S
$$

...NORTHERN ILLINOIS...


CITY           SKY/WX    TMP DP  RH WIND       PRES   REMARKS
CHICAGO-OHARE  MOCLDY    44  38  79 NE6       30.05R
CHICAGO-MIDWAY MOCLDY    49  39  68 N5        30.05R
MOLINE         CLEAR     46  39  76 SE3       30.00F
ROCKFORD       MOCLDY    51  36  56 E3        30.05R
PEORIA         PTCLDY    50  35  56 E6        30.02S
$$

NOTE: "FAIR" INDICATES FEW OR NO CLOUDS BELOW 12,000 FEET WITH NO
SIGNIFICANT WEATHER AND/OR OBSTRUCTIONS TO VISIBILITY. WIND
SPEEDS ARE IN MILES-PER-HOUR.




USA.gov is the U.S. government's official web portal to all federal, state and local government web resources and services.